COSMOS 2500 (755)

Last updated on Thu Dec 11 2025 00:03:19 GMT+0000 (Coordinated Universal Time)

1 40001U 14032A 25343.46028346 -.00000049 00000+0 00000+0 0 9997 2 40001 65.3451 320.1442 0008310 219.1348 140.8020 2.13105796 89418
UTC large
Height (km)
Speed (km/s)
/
Latitude / Longitude
Inclination (degrees)
Orbital Period (minutes)
Azimuth
Elevation
Range (km)
Doppler Factor

Next 0 passes for location: London (51.5072 / 0.1276)

Sorry there are no passes over London.